HP1MRA-15 Weather Reports


Display with metric or nautical units.
time (UTC)temp
F
wind
direction
speed
MPH
gust
MPH
rain 1hr
in
rain 24hr
in
rain mn
in
humidity
%
barometer
mb
20260507113449 81 0 0.0 2.0 0.00 0.00 0.00 86 1002.7
20260507112948 80 45 1.0 2.0 0.00 0.00 0.00 86 1002.7
20260507112449 80 0 0.0 2.0 0.00 0.00 0.00 86 1002.7
20260507111948 0 0 0.0 2.0 0.00 0.00 0.00 1002.6
20260507111449 80 0 0.0 1.0 0.00 0.00 0.00 86 1002.4
20260507110948 79 45 0.0 2.0 0.00 0.00 0.00 86 1002.4
20260507110448 79 0 2.0 2.0 0.00 0.00 0.00 86 1002.3
20260507105948 79 45 1.0 2.0 0.00 0.00 0.00 86 1002.1
20260507104948 79 45 2.0 3.0 0.00 0.00 0.00 85 1002.1
20260507104448 79 45 2.0 2.0 0.00 0.00 0.00 85 1002.0
20260507103948 80 45 1.0 2.0 0.00 0.00 0.00 85 1002.1
20260507103448 79 45 0.0 2.0 0.00 0.00 0.00 85 1002.1
20260507102948 79 45 1.0 2.0 0.00 0.00 0.00 85 1002.0
20260507102448 79 45 1.0 2.0 0.00 0.00 0.00 85 1001.9
20260507101948 80 45 2.0 2.0 0.00 0.00 0.00 85 1001.9
20260507101448 80 90 1.0 2.0 0.00 0.00 0.00 84 1001.8
20260507100947 80 90 1.0 2.0 0.00 0.00 0.00 85 1001.8
20260507100448 80 45 0.0 2.0 0.00 0.00 0.00 85 1001.9
20260507095946 80 90 1.0 2.0 0.00 0.00 0.00 85 1001.9
20260507095447 80 90 0.0 2.0 0.00 0.00 0.00 85 1001.9
20260507094947 80 45 1.0 2.0 0.00 0.00 0.00 85 1002.0
20260507094447 80 90 1.0 2.0 0.00 0.00 0.00 86 1002.0
20260507093946 80 45 1.0 2.0 0.00 0.00 0.00 86 1002.0
20260507093447 79 45 1.0 2.0 0.00 0.00 0.00 86 1002.0
20260507092945 80 45 1.0 2.0 0.00 0.00 0.00 85 1002.0
20260507092446 80 45 1.0 3.0 0.00 0.00 0.00 85 1001.9
20260507091946 80 90 0.0 2.0 0.00 0.00 0.00 85 1001.9
20260507091444 80 45 0.0 0.0 0.00 0.00 0.00 85 1002.0
20260507090943 80 90 0.0 0.0 0.00 0.00 0.00 85 1002.0
20260507085906 80 45 0.0 0.0 0.00 0.00 0.00 85 1002.1
20260507084906 80 90 0.0 3.0 0.00 0.00 0.00 85 1002.2
20260507084406 80 45 2.0 3.0 0.00 0.00 0.00 85 1002.2
20260507083906 80 45 2.0 2.0 0.00 0.00 0.00 84 1002.2
20260507083406 80 135 0.0 0.0 0.00 0.00 0.00 85 1002.1
20260507082905 80 135 0.0 1.0 0.00 0.00 0.00 85 1002.0
20260507082406 80 180 0.0 1.0 0.00 0.00 0.00 84 1002.1
20260507081905 80 45 0.0 0.0 0.00 0.00 0.00 84 1001.9
20260507081406 80 45 0.0 0.0 0.00 0.00 0.00 84 1002.0
20260507080905 80 90 0.0 1.0 0.00 0.00 0.00 84 1001.9
20260507080405 80 90 0.0 2.0 0.00 0.00 0.00 84 1002.1
20260507075906 80 135 0.0 2.0 0.00 0.00 0.00 84 1002.2
20260507075405 80 90 0.0 0.0 0.00 0.00 0.00 84 1002.2
20260507074906 80 90 0.0 2.0 0.00 0.00 0.00 84 1002.2
20260507074405 80 45 0.0 2.0 0.00 0.00 0.00 83 1002.3
20260507073906 81 45 2.0 2.0 0.00 0.00 0.00 82 1002.2
20260507073405 81 45 0.0 2.0 0.00 0.00 0.00 82 1002.3
20260507072905 81 45 0.0 0.0 0.00 0.00 0.00 82 1002.4
20260507072405 81 0 0.0 0.0 0.00 0.00 0.00 81 1002.4
20260507071905 81 0 0.0 0.0 0.00 0.00 0.00 81 1002.5
20260507071406 82 0 0.0 2.0 0.00 0.00 0.00 81 1002.6
20260507070905 82 0 0.0 2.0 0.00 0.00 0.00 81 1002.6
20260507070404 82 270 0.0 2.0 0.00 0.00 0.00 81 1002.7
20260507065905 82 45 0.0 0.0 0.00 0.00 0.00 81 1002.8
20260507065405 82 45 0.0 0.0 0.00 0.00 0.00 81 1002.8
20260507064905 82 45 0.0 2.0 0.00 0.00 0.00 81 1002.9
20260507064405 82 45 0.0 2.0 0.00 0.00 0.00 81 1003.0
20260507063904 82 45 0.0 2.0 0.00 0.00 0.00 81 1003.1
20260507063405 82 45 1.0 2.0 0.00 0.00 0.00 81 1003.0
20260507062905 82 45 0.0 2.0 0.00 0.00 0.00 81 1003.0
20260507062405 82 45 1.0 2.0 0.00 0.00 0.00 81 1003.0
20260507061905 82 90 0.0 2.0 0.00 0.00 0.00 81 1003.1
20260507061404 82 45 0.0 1.0 0.00 0.00 0.00 80 1003.1
20260507060905 82 90 0.0 1.0 0.00 0.00 0.00 80 1003.2
20260507060404 82 0 0.0 0.0 0.00 0.00 0.00 80 1003.2
20260507055905 82 0 0.0 0.0 0.00 0.00 0.00 80 1003.2
20260507055405 82 0 0.0 1.0 0.00 0.00 0.00 80 1003.3
20260507054904 82 0 0.0 1.0 0.00 0.00 0.00 81 1003.2
20260507054405 82 0 0.0 0.0 0.00 0.00 0.00 81 1003.4
20260507053902 82 0 0.0 2.0 0.00 0.00 0.00 81 1003.4
20260507053403 82 0 1.0 2.0 0.00 0.00 0.00 81 1003.4
20260507052902 82 90 0.0 1.0 0.00 0.00 0.00 81 1003.5
20260507052401 82 90 0.0 0.0 0.00 0.00 0.00 81 1003.5
20260507051859 82 90 0.0 0.0 0.00 0.00 0.00 81 1003.5
20260507051125 82 90 0.0 1.0 0.00 0.00 0.00 80 1003.5
20260507050625 82 45 0.0 2.0 0.00 0.00 0.00 80 1003.5
20260507050124 82 45 1.0 2.0 0.00 0.00 0.00 80 1003.5
20260507045625 82 135 0.0 2.0 0.00 0.00 0.00 79 1003.6
20260507045124 82 45 1.0 2.0 0.00 0.00 0.00 79 1003.5
20260507044625 82 0 0.0 2.0 0.00 0.00 0.00 79 1003.5
20260507044124 82 0 1.0 4.0 0.00 0.00 0.00 80 1003.3
20260507043625 82 0 2.0 5.0 0.00 0.00 0.00 79 1003.5
20260507043124 82 0 2.0 4.0 0.00 0.00 0.00 79 1003.4
20260507042624 82 0 2.0 3.0 0.00 0.00 0.00 79 1003.4
20260507042124 82 45 2.0 4.0 0.00 0.00 0.00 79 1003.5
20260507041624 83 45 2.0 3.0 0.00 0.00 0.00 78 1003.5
20260507041125 83 90 0.0 3.0 0.00 0.00 0.00 78 1003.4
20260507040624 83 0 2.0 4.0 0.00 0.00 0.00 78 1003.4
20260507040124 83 45 2.0 4.0 0.00 0.00 0.00 78 1003.4
20260507035624 83 0 1.0 4.0 0.00 0.00 0.00 78 1003.4
20260507035124 83 0 3.0 5.0 0.00 0.00 0.00 78 1003.4
20260507034624 83 0 2.0 3.0 0.00 0.00 0.00 78 1003.4
20260507034124 83 45 0.0 4.0 0.00 0.00 0.00 78 1003.4
20260507033624 83 0 2.0 4.0 0.00 0.00 0.00 78 1003.4
20260507033124 83 45 1.0 4.0 0.00 0.00 0.00 78 1003.3
20260507032624 83 0 2.0 5.0 0.00 0.00 0.00 78 1003.3
20260507032124 83 0 2.0 5.0 0.00 0.00 0.00 78 1003.3
20260507031624 83 0 2.0 5.0 0.00 0.00 0.00 78 1003.3
20260507031123 84 0 2.0 4.0 0.00 0.00 0.00 77 1003.2
20260507030624 84 45 1.0 2.0 0.00 0.00 0.00 77 1003.3
20260507030124 84 0 1.0 2.0 0.00 0.00 0.00 77 1003.1
20260507025623 84 0 1.0 2.0 0.00 0.00 0.00 77 1003.1
20260507025124 84 0 1.0 3.0 0.00 0.00 0.00 77 1003.1
20260507024623 84 0 1.0 3.0 0.00 0.00 0.00 77 1003.0
20260507024124 84 0 1.0 2.0 0.00 0.00 0.00 77 1002.9
20260507023624 84 45 1.0 2.0 0.00 0.00 0.00 78 1002.9
20260507023123 84 45 1.0 3.0 0.00 0.00 0.00 78 1002.9
20260507022624 84 0 2.0 4.0 0.00 0.00 0.00 78 1002.8
20260507022123 84 0 2.0 4.0 0.00 0.00 0.00 78 1002.8
20260507021623 84 0 2.0 3.0 0.00 0.00 0.00 78 1002.8
20260507021124 84 0 2.0 3.0 0.00 0.00 0.00 78 1002.8
20260507020624 84 45 2.0 4.0 0.00 0.00 0.00 77 1002.7
20260507020124 84 45 2.0 4.0 0.00 0.00 0.00 77 1002.6
20260507015623 84 45 2.0 4.0 0.00 0.00 0.00 77 1002.6
20260507015123 85 45 2.0 3.0 0.00 0.00 0.00 78 1002.5
20260507014623 85 0 1.0 3.0 0.00 0.00 0.00 79 1002.5
20260507014123 85 45 2.0 4.0 0.00 0.00 0.00 79 1002.3
20260507013623 85 0 2.0 3.0 0.00 0.00 0.00 79 1002.4
20260507013123 85 0 2.0 3.0 0.00 0.00 0.00 79 1002.3
20260507012624 85 0 0.0 1.0 0.00 0.00 0.00 79 1002.3
20260507012123 85 0 0.0 2.0 0.00 0.00 0.00 79 1002.2
20260507011623 85 0 1.0 3.0 0.00 0.00 0.00 80 1002.2
20260507011122 85 0 2.0 4.0 0.00 0.00 0.00 80 1002.2
20260507010623 85 45 0.0 2.0 0.00 0.00 0.00 80 1002.2
20260507010122 85 45 0.0 2.0 0.00 0.00 0.00 80 1002.1
20260507005623 0 45 1.0 3.0 0.00 0.00 0.00 1002.0
20260507005121 86 45 2.0 4.0 0.00 0.00 0.00 80 1001.9
20260507004622 86 0 2.0 4.0 0.00 0.00 0.00 80 1001.9
20260507004122 86 0 2.0 5.0 0.00 0.00 0.00 80 1001.8
20260507003621 86 0 2.0 3.0 0.00 0.00 0.00 80 1001.8
20260507003122 86 0 2.0 5.0 0.00 0.00 0.00 80 1001.9
20260507002622 86 0 2.0 4.0 0.00 0.00 0.00 79 1001.8
20260507002122 87 0 1.0 3.0 0.00 0.00 0.00 79 1001.8
20260507001621 87 0 1.0 2.0 0.00 0.00 0.00 79 1001.8
20260507001122 87 45 0.0 2.0 0.00 0.00 0.00 79 1001.8
20260507000621 86 225 0.0 2.0 0.00 0.00 0.00 79 1001.8
20260507000121 86 270 0.0 2.0 0.00 0.00 0.00 79 1001.7
20260506235622 87 270 1.0 2.0 0.00 0.00 0.00 79 1001.7
20260506235121 87 180 0.0 1.0 0.00 0.00 0.00 78 1001.6
20260506234621 87 0 0.0 1.0 0.00 0.00 0.00 77 1001.5
20260506234121 87 0 0.0 2.0 0.00 0.00 0.00 77 1001.5
20260506233621 87 0 0.0 2.0 0.00 0.00 0.00 77 1001.4
20260506233121 87 0 1.0 2.0 0.00 0.00 0.00 77 1001.4
20260506232622 87 45 1.0 3.0 0.00 0.00 0.00 76 1001.5
20260506232119 87 0 2.0 3.0 0.00 0.00 0.00 76 1001.6
20260506231619 87 45 1.0 3.0 0.00 0.00 0.00 75 1001.6
20260506231119 87 45 1.0 2.0 0.00 0.00 0.00 75 1001.6
20260506230618 88 45 2.0 2.0 0.00 0.00 0.00 75 1001.6
20260506230117 88 45 2.0 2.0 0.00 0.00 0.00 75 1001.5
20260506225035 88 45 2.0 3.0 0.00 0.00 0.00 76 1001.4
20260506224534 88 45 2.0 3.0 0.00 0.00 0.00 76 1001.4
20260506224034 87 0 2.0 3.0 0.00 0.00 0.00 77 1001.3
20260506223534 87 45 1.0 3.0 0.00 0.00 0.00 77 1001.2
20260506223034 87 45 2.0 5.0 0.00 0.00 0.00 76 1001.2
20260506222535 88 45 2.0 5.0 0.00 0.00 0.00 77 1001.2
20260506222034 88 45 3.0 5.0 0.00 0.00 0.00 77 1001.2
20260506221534 89 45 2.0 2.0 0.00 0.00 0.00 76 1001.1
20260506221034 89 45 0.0 2.0 0.00 0.00 0.00 75 1001.0
20260506220534 89 0 0.0 0.0 0.00 0.00 0.00 75 1001.0
20260506220034 89 0 0.0 2.0 0.00 0.00 0.00 75 1000.8
20260506215534 89 135 1.0 3.0 0.00 0.00 0.00 74 1000.8
20260506215034 89 90 2.0 3.0 0.00 0.00 0.00 74 1000.7
20260506214534 90 45 1.0 2.0 0.00 0.00 0.00 74 1000.9
20260506214033 90 0 1.0 4.0 0.00 0.00 0.00 73 1000.9
20260506213534 90 45 2.0 3.0 0.00 0.00 0.00 73 1000.8
20260506213034 90 0 2.0 5.0 0.00 0.00 0.00 73 1000.9
20260506212534 90 45 0.0 4.0 0.00 0.00 0.00 71 1001.1
20260506212034 91 135 1.0 2.0 0.00 0.00 0.00 75 1001.1
20260506211533 91 90 0.0 1.0 0.00 0.00 0.00 74 1000.9
20260506211034 91 0 0.0 2.0 0.00 0.00 0.00 74 1001.0
20260506210533 91 90 0.0 2.0 0.00 0.00 0.00 74 1001.0
20260506210033 90 0 0.0 2.0 0.00 0.00 0.00 74 1001.0
20260506205534 90 90 2.0 4.0 0.00 0.00 0.00 75 1000.9
20260506205033 90 45 2.0 5.0 0.00 0.00 0.00 73 1000.9
20260506204533 90 0 4.0 8.0 0.00 0.00 0.00 72 1000.7
20260506204033 91 45 4.0 9.0 0.00 0.00 0.00 69 1000.8
20260506203533 92 90 5.0 8.0 0.00 0.00 0.00 65 1000.8
20260506203036 93 45 5.0 10.0 0.00 0.00 0.00 63 1000.7
20260506202533 93 45 7.0 10.0 0.00 0.00 0.00 64 1000.7
20260506202035 92 0 5.0 13.0 0.00 0.00 0.00 65 1000.8
20260506201533 0 90 5.0 11.0 0.00 0.00 0.00 1000.8
20260506201033 91 45 6.0 11.0 0.00 0.00 0.00 67 1000.7
20260506200533 90 45 4.0 8.0 0.00 0.00 0.00 69 1000.7
20260506200033 90 45 4.0 8.0 0.00 0.00 0.00 69 1000.9
20260506195533 90 90 2.0 8.0 0.00 0.00 0.00 69 1001.1
20260506195033 90 90 4.0 6.0 0.00 0.00 0.00 69 1001.1
20260506194533 91 45 2.0 8.0 0.00 0.00 0.00 67 1001.1
20260506194032 91 45 5.0 11.0 0.00 0.00 0.00 66 1001.1
20260506193533 93 90 5.0 15.0 0.00 0.00 0.00 63 1001.1
20260506193033 96 45 9.0 14.0 0.00 0.00 0.00 60 1000.9
20260506192532 98 45 6.0 13.0 0.00 0.00 0.00 59 1001.1
20260506192032 98 90 5.0 9.0 0.00 0.00 0.00 58 1001.2
20260506191533 97 90 1.0 4.0 0.00 0.00 0.00 58 1001.2
20260506191033 95 270 1.0 2.0 0.00 0.00 0.00 59 1001.3
20260506190532 96 135 1.0 3.0 0.00 0.00 0.00 59 1001.4
20260506190033 97 180 2.0 6.0 0.00 0.00 0.00 56 1001.5
20260506185533 0 180 4.0 9.0 0.00 0.00 0.00 1001.7
20260506185032 103 225 5.0 8.0 0.00 0.00 0.00 51 1001.6
20260506184533 104 315 0.0 3.0 0.00 0.00 0.00 51 1001.7
20260506184032 102 180 0.0 6.0 0.00 0.00 0.00 52 1001.7
20260506183532 101 135 0.0 3.0 0.00 0.00 0.00 51 1001.8
20260506183033 101 225 3.0 7.0 0.00 0.00 0.00 50 1002.1
20260506182532 101 225 2.0 5.0 0.00 0.00 0.00 51 1002.2
20260506182032 100 270 0.0 5.0 0.00 0.00 0.00 54 1002.3
20260506181532 99 225 2.0 6.0 0.00 0.00 0.00 53 1002.3
20260506181032 98 225 0.0 7.0 0.00 0.00 0.00 55 1002.3
20260506180532 98 225 4.0 9.0 0.00 0.00 0.00 54 1002.4
20260506180032 98 225 2.0 7.0 0.00 0.00 0.00 56 1002.6
20260506175532 98 225 2.0 5.0 0.00 0.00 0.00 55 1002.7
20260506175031 99 180 3.0 7.0 0.00 0.00 0.00 53 1002.9
20260506174532 100 225 2.0 5.0 0.00 0.00 0.00 54 1002.9
20260506174032 100 225 2.0 6.0 0.00 0.00 0.00 55 1003.0
20260506173532 100 180 1.0 6.0 0.00 0.00 0.00 56 1003.0
20260506173032 100 180 0.0 3.0 0.00 0.00 0.00 58 1003.0
20260506172032 100 180 0.0 3.0 0.00 0.00 0.00 58 1003.1
20260506171532 99 180 0.0 5.0 0.00 0.00 0.00 59 1003.2
20260506171032 98 225 3.0 5.0 0.00 0.00 0.00 60 1003.2
20260506170532 97 270 0.0 6.0 0.00 0.00 0.00 60 1003.2
20260506170031 98 225 3.0 6.0 0.00 0.00 0.00 58 1003.1
20260506165532 97 270 1.0 7.0 0.00 0.00 0.00 60 1003.1
20260506165031 97 0 0.0 5.0 0.00 0.00 0.00 60 1003.1
20260506164532 97 225 4.0 5.0 0.00 0.00 0.00 58 1003.2
20260506164031 97 270 2.0 6.0 0.00 0.00 0.00 58 1003.1
20260506163531 98 225 2.0 6.0 0.00 0.00 0.00 59 1003.2
20260506163031 97 270 0.0 5.0 0.00 0.00 0.00 60 1003.3
20260506162531 96 225 2.0 7.0 0.00 0.00 0.00 61 1003.3
20260506162032 96 45 0.0 8.0 0.00 0.00 0.00 61 1003.4
20260506161531 97 180 5.0 8.0 0.00 0.00 0.00 58 1003.5
20260506161031 98 315 0.0 5.0 0.00 0.00 0.00 62 1003.6
20260506160531 97 135 1.0 4.0 0.00 0.00 0.00 60 1003.6
20260506160031 97 90 2.0 4.0 0.00 0.00 0.00 59 1003.7
20260506155531 97 225 2.0 5.0 0.00 0.00 0.00 61 1003.6
20260506155031 97 315 0.0 3.0 0.00 0.00 0.00 64 1003.6
20260506154531 96 45 0.0 2.0 0.00 0.00 0.00 62 1003.6
20260506154031 97 45 1.0 4.0 0.00 0.00 0.00 62 1003.6
20260506153530 96 45 2.0 4.0 0.00 0.00 0.00 64 1003.6
20260506153031 96 225 0.0 4.0 0.00 0.00 0.00 63 1003.7
20260506152530 96 270 1.0 4.0 0.00 0.00 0.00 65 1003.9
20260506152031 96 225 0.0 3.0 0.00 0.00 0.00 66 1003.9
20260506151530 96 45 0.0 3.0 0.00 0.00 0.00 68 1004.0
20260506151031 95 0 2.0 3.0 0.00 0.00 0.00 69 1004.0
20260506150530 94 0 0.0 3.0 0.00 0.00 0.00 70 1004.0
20260506150031 94 0 0.0 5.0 0.00 0.00 0.00 69 1004.0
20260506145531 93 0 2.0 5.0 0.00 0.00 0.00 69 1004.1
20260506145030 93 45 1.0 3.0 0.00 0.00 0.00 70 1004.2
20260506144531 93 0 1.0 2.0 0.00 0.00 0.00 71 1004.2
20260506144031 93 180 0.0 2.0 0.00 0.00 0.00 72 1004.2
20260506143530 92 225 0.0 2.0 0.00 0.00 0.00 72 1004.2
20260506143030 92 90 1.0 2.0 0.00 0.00 0.00 72 1004.2
20260506142531 92 90 0.0 2.0 0.00 0.00 0.00 72 1004.2
20260506142030 92 45 0.0 2.0 0.00 0.00 0.00 74 1004.2
20260506141530 0 315 0.0 0.0 0.00 0.00 0.00 1004.2
20260506141031 91 315 0.0 0.0 0.00 0.00 0.00 77 1004.2
20260506140530 91 315 0.0 0.0 0.00 0.00 0.00 78 1004.2
20260506140030 90 45 0.0 0.0 0.00 0.00 0.00 79 1004.3
20260506135530 89 45 0.0 0.0 0.00 0.00 0.00 80 1004.3
20260506135030 88 0 0.0 0.0 0.00 0.00 0.00 82 1004.1
20260506134530 87 0 0.0 1.0 0.00 0.00 0.00 83 1004.1
20260506134030 87 45 0.0 1.0 0.00 0.00 0.00 83 1004.1
20260506133530 86 45 1.0 3.0 0.00 0.00 0.00 82 1004.1
20260506133030 86 45 1.0 2.0 0.00 0.00 0.00 84 1004.0
20260506132530 86 45 0.0 1.0 0.00 0.00 0.00 85 1004.1
20260506132030 85 0 0.0 0.0 0.00 0.00 0.00 86 1004.1
20260506131530 84 0 0.0 2.0 0.00 0.00 0.00 86 1003.9
20260506131029 84 45 0.0 2.0 0.00 0.00 0.00 87 1003.9
20260506130530 83 45 1.0 2.0 0.00 0.00 0.00 87 1003.8
20260506130029 83 45 1.0 2.0 0.00 0.00 0.00 88 1003.7
20260506125530 82 45 2.0 3.0 0.00 0.00 0.00 88 1003.6
20260506125029 82 45 2.0 3.0 0.00 0.00 0.00 88 1003.7
20260506124530 82 45 0.0 2.0 0.00 0.00 0.00 88 1003.6
20260506124029 82 90 2.0 2.0 0.00 0.00 0.00 88 1003.7
20260506123530 82 45 2.0 3.0 0.00 0.00 0.00 88 1003.6
20260506123029 82 45 1.0 2.0 0.00 0.00 0.00 88 1003.7
20260506122529 82 0 0.0 1.0 0.00 0.00 0.00 88 1003.5
20260506122030 82 225 0.0 1.0 0.00 0.00 0.00 88 1003.5
20260506121529 82 135 0.0 2.0 0.00 0.00 0.00 88 1003.4
20260506121030 82 225 0.0 2.0 0.00 0.00 0.00 89 1003.2
20260506120529 82 225 0.0 0.0 0.00 0.00 0.00 89 1003.0
20260506120030 81 0 0.0 0.0 0.00 0.00 0.00 89 1002.9
20260506115529 81 180 0.0 0.0 0.00 0.00 0.00 89 1002.9
20260506115029 80 180 0.0 1.0 0.00 0.00 0.00 89 1002.8
20260506114529 80 180 0.0 2.0 0.00 0.00 0.00 89 1002.7
20260506114029 80 135 0.0 2.0 0.00 0.00 0.00 89 1002.7